TimeCST,TemperatureF,Dew PointF,Humidity,Sea Level PressureIn,VisibilityMPH,Wind Direction,Wind SpeedMPH,Gust SpeedMPH,PrecipitationIn,Events,Conditions,WindDirDegrees,DateUTC
12:53 AM,37.9,35.1,89,30.35,10.0,Calm,Calm,-,N/A,,Clear,0,2012-11-17 06:53:00
1:53 AM,42.1,35.1,76,30.33,10.0,NE,3.5,-,N/A,,Clear,40,2012-11-17 07:53:00
2:53 AM,36.0,33.1,89,30.34,10.0,Calm,Calm,-,N/A,,Clear,0,2012-11-17 08:53:00
3:53 AM,35.1,33.1,92,30.34,1.2,Calm,Calm,-,N/A,,Clear,0,2012-11-17 09:53:00
4:21 AM,33.8,32.0,93,30.34,3.0,Calm,Calm,-,N/A,,Clear,0,2012-11-17 10:21:00
4:53 AM,34.0,32.0,92,30.35,3.0,Calm,Calm,-,N/A,,Clear,0,2012-11-17 10:53:00
5:44 AM,33.8,30.2,87,30.36,2.0,Calm,Calm,-,N/A,,Clear,0,2012-11-17 11:44:00
5:53 AM,33.1,30.9,92,30.36,2.5,Calm,Calm,-,N/A,,Clear,0,2012-11-17 11:53:00
6:18 AM,32.0,30.2,93,30.36,5.0,Calm,Calm,-,N/A,,Clear,0,2012-11-17 12:18:00
6:53 AM,32.0,30.0,92,30.38,2.0,Calm,Calm,-,N/A,,Clear,0,2012-11-17 12:53:00
7:04 AM,32.0,30.2,93,30.38,4.0,Calm,Calm,-,N/A,,Clear,0,2012-11-17 13:04:00
7:53 AM,39.9,37.0,89,30.39,10.0,Calm,Calm,-,N/A,,Clear,0,2012-11-17 13:53:00
8:53 AM,48.9,37.9,66,30.40,10.0,ENE,5.8,-,N/A,,Clear,70,2012-11-17 14:53:00
9:53 AM,55.9,37.9,51,30.40,10.0,Variable,4.6,-,N/A,,Clear,0,2012-11-17 15:53:00
10:53 AM,61.0,37.0,41,30.39,10.0,ENE,5.8,-,N/A,,Clear,70,2012-11-17 16:53:00
11:53 AM,66.0,32.0,28,30.38,10.0,Calm,Calm,-,N/A,,Clear,0,2012-11-17 17:53:00
12:53 PM,66.9,30.9,26,30.34,10.0,Variable,4.6,-,N/A,,Clear,0,2012-11-17 18:53:00
1:53 PM,69.1,32.0,25,30.30,10.0,NE,6.9,-,N/A,,Clear,40,2012-11-17 19:53:00
2:53 PM,70.0,28.9,22,30.30,10.0,East,3.5,-,N/A,,Clear,80,2012-11-17 20:53:00
3:53 PM,69.1,28.9,22,30.30,10.0,ENE,3.5,-,N/A,,Clear,60,2012-11-17 21:53:00
4:53 PM,61.0,36.0,39,30.30,10.0,Calm,Calm,-,N/A,,Clear,0,2012-11-17 22:53:00
5:53 PM,50.0,37.9,63,30.31,10.0,Calm,Calm,-,N/A,,Clear,0,2012-11-17 23:53:00
6:53 PM,46.0,37.9,73,30.32,10.0,Calm,Calm,-,N/A,,Clear,0,2012-11-18 00:53:00
7:53 PM,42.1,37.0,82,30.32,10.0,Calm,Calm,-,N/A,,Clear,0,2012-11-18 01:53:00
8:53 PM,39.9,37.0,89,30.35,10.0,Calm,Calm,-,N/A,,Clear,0,2012-11-18 02:53:00
9:53 PM,37.9,35.1,89,30.35,10.0,Calm,Calm,-,N/A,,Clear,0,2012-11-18 03:53:00
10:53 PM,37.0,35.1,93,30.35,9.0,Calm,Calm,-,N/A,,Clear,0,2012-11-18 04:53:00
11:53 PM,36.0,34.0,93,30.34,8.0,Calm,Calm,-,N/A,,Clear,0,2012-11-18 05:53:00